Location: Hamilton
(37.7830°S, 175.2830°E)
Time: 16:18:13
(UTC+12:00)

Cosmos 2263 Rocket - Pass Details

Date: 24 January 2019
Orbit: 825 x 847 km, 71.0° (Epoch: 17 April)

Event Time Altitude Azimuth Distance (km) Brightness Sun altitude
Rises 21:38:28 0° 197° (SSW) 3,415 6.3 -11.1°
Reaches altitude 10° 21:41:02 10° 191° (S) 2,477 5.3 -11.5°
Maximum altitude 21:46:31 47° 117° (ESE) 1,108 2.6 -12.4°
Enters shadow 21:50:30 18° 49° (NE) 1,957 3.4 -13.0°
